[[{"header":{"parameterUnit":"m.s-1","parameterCategory":1,"la1":30.2991,"la2":30.254,"lo1":-89.0895,"lo2":-89.0444,"dy":0.0017,"dx":0.0017,"nx":28,"ny":28,"refTime":"2024-10-07T09:00:00:Z","depth":0,"parameterNumber":2,"parameterNumberName":"U-component_of_WINDS"},"data":[0,0,0,0,0,0,0,0,0,0,0,0,0,0,0,0,0,0,0,0,0,0,0,0,0,0,0,0,0,0,0,0,0,0,0,0,0,0,0,0,0,0,0,0,0,0,0,0,0,0,0,0,0,0,0,0,0,0,-2.8854,-2.8855,0,-2.8895,-2.8895,-2.8896,-2.8807,-2.8804,-2.8801,-2.8798,-2.884,-2.8844,-2.8848,0,0,0,0,0,0,0,0,0,0,0,0,0,-2.87,-2.8703,-2.8854,-2.8855,-2.8855,-2.8895,-2.8895,-2.8896,-2.8807,-2.8804,-2.88,-2.8797,-2.8839,-2.8843,-2.8848,0,0,0,0,0,0,0,0,0,0,0,0,0,-2.8756,-2.8704,-2.8854,-2.8816,-2.8813,-2.8895,-2.8895,-2.8896,-2.8808,-2.8804,-2.8799,-2.8795,-2.8837,-2.8843,-2.8849,-2.897,0,0,-2.8866,-2.8868,0,0,0,0,0,0,0,0,-2.8753,-2.8762,-2.8821,-2.8819,-2.8815,-2.8841,-2.8856,-2.8921,-2.8809,-2.881,-2.8798,-2.8793,-2.8844,-2.8849,-2.8866,-2.8972,-2.8973,-2.8866,-2.887,-2.8872,-2.8874,0,0,0,0,0,0,0,-2.8749,-2.876,-2.887,-2.8822,-2.8819,-2.8796,-2.88,-2.8868,-2.8851,-2.8809,-2.8803,-2.8809,-2.8842,-2.8861,-2.8866,-2.8974,-2.8866,-2.8871,-2.8875,-2.8877,-2.9181,-2.9185,0,0,0,0,0,0,-2.875,-2.8757,-2.8869,-2.8872,-2.8773,-2.8803,-2.8806,-2.8837,-2.885,-2.8847,-2.8813,-2.8805,-2.8853,-2.886,-2.8867,-2.901,-2.8872,-2.8878,-2.8881,-2.9176,-2.9182,-2.9187,0,0,0,0,0,0,-2.8747,-2.8761,-2.8867,-2.8813,-2.8824,-2.881,-2.8845,-2.884,-2.8859,-2.8852,-2.8848,-2.8835,-2.885,-2.8859,-2.8945,-2.901,-2.888,-2.8885,-2.9171,-2.9178,-2.9184,-2.9297,0,0,0,0,0,0,-2.8743,-2.8761,-2.8807,-2.8814,-2.8828,-2.8945,-2.8849,-2.8844,-2.8869,-2.8859,-2.8872,-2.887,-2.8847,-2.8937,-2.895,-2.9016,-2.889,-2.9165,-2.9174,-2.9182,-2.9287,-2.9307,-2.9324,0,0,0,0,0,-2.8738,-2.8837,-2.881,-2.8824,-2.8885,-2.8949,-2.8956,-2.8928,-2.8875,-2.8921,-2.8916,-2.887,-2.9001,-2.8946,-2.8961,-2.9029,-2.916,-2.9171,-2.9181,-2.9279,-2.9303,-2.9323,0,0,0,0,0,0,-2.8838,-2.8837,-2.8807,-2.8911,-2.8931,-2.8934,-2.8991,-2.8954,-2.8989,-2.8978,-2.8941,-2.8945,-2.9037,-2.9041,-2.8981,-2.9147,-2.9072,-2.9086,-2.9141,-2.9164,-2.9181,-2.9179,-2.8894,0,0,0,0,0,-2.8872,-2.8924,-2.892,-2.9013,-2.9024,-2.9006,-2.9033,-2.9009,-2.9027,-2.9035,-2.9037,-2.9057,-2.9102,-2.9133,-2.9174,-2.9287,-2.9288,-2.9341,-2.9359,-2.9374,-2.9387,-2.9447,-2.947,-2.9221,-2.9221,-2.9221,0,0,-2.8944,-2.8949,-2.8985,-2.9033,-2.9045,-2.91,-2.9014,-2.9075,-2.9115,-2.9045,-2.9126,-2.9127,-2.9147,-2.9246,-2.929,-2.9253,-2.9455,-2.9387,-2.9399,-2.9404,-2.946,-2.9483,-2.9504,-2.9228,-2.9227,-2.9226,0,0,-2.9101,-2.9111,-2.9189,-2.9203,-2.9222,-2.9209,-2.9228,-2.9237,-2.9235,-2.9315,-2.9263,-2.931,-2.9389,-2.9405,-2.9424,-2.9586,-2.9545,-2.9601,-2.9696,-2.9755,-2.9775,-2.9792,-2.985,-2.9872,-2.9613,-2.9614,-2.9614,0,-2.9188,-2.9268,-2.9234,-2.9299,-2.9322,-2.926,-2.9339,-2.9353,-2.9386,-2.9403,-2.936,-2.9457,-2.9466,-2.9569,-2.9608,-2.9625,-2.9645,-2.96,-2.9775,-2.9791,-2.9807,-2.9862,-2.9885,-2.962,-2.962,-2.9619,-2.9618,0,-2.9373,-2.9429,-2.949,-2.9522,-2.9552,-2.9623,-2.96,-2.9634,-2.9607,-2.9599,-2.9681,-2.9689,-2.9731,-2.9753,-2.9728,-2.9852,-2.9828,-2.9781,-2.9705,-2.9838,-2.989,-2.991,-2.963,-2.9627,-2.9625,-2.9624,0,0,-2.9597,-2.9609,-2.9632,-2.9645,-2.9662,-2.9704,-2.9773,-2.9813,-2.9843,-2.9867,-2.9923,-2.9991,-2.9947,-2.9968,-2.9943,-2.9995,-3.0123,-2.994,-2.994,-2.9975,-3.0261,-3.0298,-3.0323,-3.0095,-3.0099,-3.0102,-3.026,0,-2.9754,-2.9871,-2.9842,-2.9959,-3.001,-2.9952,-3.0011,-3.0027,-3.0021,-3.0063,-3.0056,-3.0105,-3.0042,-3.0055,-3.0103,-3.0098,-3.0181,-3.0086,-3.0148,-3.0151,-3.0146,-3.035,-3.0389,-3.0537,-3.028,-3.0283,-3.0286,0,-2.9953,-2.9984,-3.0106,-3.0113,-3.0133,-3.0188,-3.0222,-3.0263,-3.028,-3.0272,-3.0295,-3.026,-3.0327,-3.025,-3.0342,-3.0278,-3.0301,-3.0302,-3.0307,-3.0313,-3.0227,-3.0362,-3.0584,-3.0607,-3.0317,-3.0314,-3.0312,0,-3.0104,-3.0177,-3.0259,-3.0272,-3.0283,-3.0322,-3.0328,-3.0341,-3.0367,-3.0397,-3.0413,-3.0451,-3.0472,-3.0501,-3.0477,-3.0423,-3.0573,-3.0494,-3.0569,-3.057,-3.0604,-3.0603,-3.0834,-3.0618,-3.0618,-3.0617,-3.0617,0,-3.0283,-3.036,-3.0327,-3.0378,-3.0462,-3.0428,-3.0512,-3.0511,-3.0523,-3.0572,-3.0523,-3.057,-3.0535,-3.0579,-3.0561,-3.064,-3.065,-3.0645,-3.0639,-3.065,-3.0651,-3.0666,-3.0655,-3.0623,-3.0622,-3.0621,-3.062,0,-3.0468,-3.0449,-3.0534,-3.0537,-3.0539,-3.0601,-3.0603,-3.065,-3.0639,-3.0702,-3.0715,-3.0699,-3.0748,-3.0727,-3.0779,-3.0766,-3.0868,-3.0848,-3.0863,-3.0858,-3.0934,-3.0928,-3.1184,-3.1216,-3.0979,-3.0981,-3.0983,0,-3.0584,-3.0641,-3.065,-3.0679,-3.0689,-3.0737,-3.0763,-3.0731,-3.076,-3.0783,-3.0828,-3.0872,-3.0907,-3.0989,-3.0981,-3.1021,-3.1002,-3.1089,-3.1008,-3.1017,-3.1004,-3.1001,-3.1007,-3.1106,-3.1109,-3.1111,-3.1113,0,-3.0792,-3.0779,-3.0819,-3.0855,-3.0888,-3.0915,-3.0938,-3.0965,-3.0933,-3.0969,-3.1018,-3.1045,-3.1098,-3.1143,-3.1178,-3.1183,-3.1144,-3.1138,-3.1158,-3.117,-3.1176,-3.1174,-3.0908,-3.1133,-3.1131,-3.1129,-3.1128,-3.1127,-3.0946,-3.0994,-3.1008,-3.1053,-3.1067,-3.1089,-3.1134,-3.1128,-3.1169,-3.121,-3.1188,-3.1246,-3.126,-3.1302,-3.1314,-3.1358,-3.1324,-3.1352,-3.136,-3.1367,-3.1378,-3.1168,-3.1365,-3.1364,-3.1363,-3.1363,-3.1362,0,-3.1151,-3.1157,-3.1199,-3.1233,-3.1269,-3.1227,-3.125,-3.1283,-3.1334,-3.1351,-3.1386,-3.1443,-3.1486,-3.1482,-3.1522,-3.1559,-3.1541,-3.157,-3.1568,-3.157,-3.1406,-3.1385,-3.1584,-3.1584,-3.1584,-3.1584,-3.1584,-3.1584,-3.1263,-3.1343,-3.1332,-3.1418,-3.1422,-3.1479,-3.1496,-3.1516,-3.1529,-3.1595,-3.1631,-3.1628,-3.1636,-3.1676,-3.1714,-3.1711,-3.1729,-3.1765,-3.1756,-3.1603,-3.1581,-3.1561,-3.1541,-3.1769,-3.1769,-3.1916,-3.1917,-3.1918]},{"header":{"parameterUnit":"m.s-1","parameterCategory":1,"la1":30.2991,"la2":30.254,"lo1":-89.0895,"lo2":-89.0444,"dy":0.0017,"dx":0.0017,"nx":28,"ny":28,"refTime":"2024-10-07T09:00:00:Z","depth":0,"parameterNumber":3,"parameterNumberName":"V-component_of_WINDS"},"data":[0,0,0,0,0,0,0,0,0,0,0,0,0,0,0,0,0,0,0,0,0,0,0,0,0,0,0,0,0,0,0,0,0,0,0,0,0,0,0,0,0,0,0,0,0,0,0,0,0,0,0,0,0,0,0,0,0,0,-4.5478,-4.5478,0,-4.5508,-4.5509,-4.5509,-4.5437,-4.5435,-4.5433,-4.5431,-4.5459,-4.5461,-4.5464,0,0,0,0,0,0,0,0,0,0,0,0,0,-4.5354,-4.5357,-4.5478,-4.5478,-4.5479,-4.5508,-4.5509,-4.5509,-4.5438,-4.5435,-4.5432,-4.543,-4.5458,-4.5461,-4.5464,0,0,0,0,0,0,0,0,0,0,0,0,0,-4.5398,-4.5357,-4.5478,-4.5447,-4.5444,-4.5508,-4.5509,-4.5509,-4.5438,-4.5435,-4.5431,-4.5428,-4.5457,-4.5461,-4.5465,-4.556,0,0,-4.5478,-4.548,0,0,0,0,0,0,0,0,-4.5396,-4.5403,-4.5451,-4.5449,-4.5446,-4.5466,-4.5475,-4.5526,-4.5439,-4.544,-4.5431,-4.5427,-4.5464,-4.5467,-4.548,-4.5561,-4.5562,-4.5478,-4.5481,-4.5483,-4.5484,0,0,0,0,0,0,0,-4.5393,-4.5401,-4.549,-4.5452,-4.5449,-4.543,-4.5432,-4.5485,-4.5471,-4.544,-4.5435,-4.544,-4.5462,-4.5476,-4.548,-4.5563,-4.5478,-4.5482,-4.5485,-4.5487,-4.5722,-4.5725,0,0,0,0,0,0,-4.5394,-4.5399,-4.5489,-4.5491,-4.5412,-4.5435,-4.5438,-4.5463,-4.547,-4.5468,-4.5443,-4.5436,-4.547,-4.5475,-4.5481,-4.5592,-4.5483,-4.5487,-4.5489,-4.5718,-4.5723,-4.5727,0,0,0,0,0,0,-4.5392,-4.5403,-4.5488,-4.5444,-4.5453,-4.5441,-4.5469,-4.5465,-4.548,-4.5472,-4.5469,-4.546,-4.5468,-4.5475,-4.5541,-4.5592,-4.5489,-4.5493,-4.5714,-4.572,-4.5725,-4.5816,0,0,0,0,0,0,-4.5389,-4.5403,-4.544,-4.5445,-4.5456,-4.5549,-4.5473,-4.5468,-4.5488,-4.548,-4.5488,-4.5486,-4.5466,-4.5535,-4.5545,-4.5596,-4.5496,-4.5709,-4.5716,-4.5723,-4.5808,-4.5824,-4.5837,0,0,0,0,0,-4.5385,-4.5464,-4.5442,-4.5453,-4.5502,-4.5552,-4.5558,-4.5534,-4.5492,-4.5529,-4.5523,-4.5485,-4.5585,-4.5542,-4.5553,-4.5606,-4.5706,-4.5714,-4.5722,-4.5802,-4.5821,-4.5837,0,0,0,0,0,0,-4.5464,-4.5464,-4.544,-4.5523,-4.5538,-4.554,-4.5585,-4.5555,-4.5581,-4.5573,-4.5541,-4.5544,-4.5615,-4.5617,-4.557,-4.5698,-4.5638,-4.5649,-4.5695,-4.5713,-4.5727,-4.5725,-4.55,0,0,0,0,0,-4.5491,-4.5533,-4.553,-4.5604,-4.5612,-4.5598,-4.5618,-4.5599,-4.5613,-4.5618,-4.5618,-4.5632,-4.5666,-4.5689,-4.572,-4.5808,-4.5808,-4.585,-4.5864,-4.5876,-4.5886,-4.5932,-4.595,-4.5754,-4.5754,-4.5754,0,0,-4.5547,-4.5553,-4.5581,-4.562,-4.5629,-4.5672,-4.5603,-4.5651,-4.5683,-4.5625,-4.5688,-4.5688,-4.5701,-4.5778,-4.5812,-4.5782,-4.594,-4.5887,-4.5896,-4.59,-4.5942,-4.5961,-4.5978,-4.5759,-4.5758,-4.5758,0,0,-4.5673,-4.5681,-4.5743,-4.5754,-4.5769,-4.5759,-4.5774,-4.5779,-4.5778,-4.584,-4.5798,-4.5833,-4.5893,-4.5904,-4.5918,-4.6046,-4.6012,-4.6057,-4.6133,-4.6178,-4.6193,-4.6207,-4.6253,-4.627,-4.6066,-4.6067,-4.6067,0,-4.5741,-4.5805,-4.5779,-4.583,-4.5848,-4.5799,-4.5861,-4.5872,-4.5896,-4.5909,-4.5875,-4.5949,-4.5954,-4.6033,-4.6064,-4.6077,-4.6092,-4.6056,-4.6194,-4.6207,-4.6219,-4.6263,-4.628,-4.6072,-4.6071,-4.6071,-4.607,0,-4.5888,-4.5933,-4.5981,-4.6007,-4.603,-4.6086,-4.6067,-4.6094,-4.6072,-4.6064,-4.6128,-4.6133,-4.6164,-4.6181,-4.6159,-4.6257,-4.6237,-4.6199,-4.6138,-4.6244,-4.6284,-4.63,-4.608,-4.6078,-4.6076,-4.6075,0,0,-4.6065,-4.6075,-4.6093,-4.6104,-4.6117,-4.615,-4.6203,-4.6235,-4.6258,-4.6276,-4.6319,-4.6371,-4.6335,-4.635,-4.633,-4.6369,-4.6471,-4.6326,-4.6326,-4.6353,-4.6578,-4.6607,-4.6627,-4.6448,-4.6451,-4.6453,-4.6577,0,-4.6189,-4.6282,-4.626,-4.6352,-4.6392,-4.6345,-4.6392,-4.6404,-4.6398,-4.6431,-4.6423,-4.6461,-4.6411,-4.642,-4.6457,-4.6451,-4.6516,-4.6441,-4.6488,-4.649,-4.6487,-4.6648,-4.6679,-4.6796,-4.6592,-4.6595,-4.6597,0,-4.6346,-4.6371,-4.6468,-4.6473,-4.649,-4.6532,-4.6558,-4.659,-4.6602,-4.6595,-4.6612,-4.6584,-4.6635,-4.6573,-4.6644,-4.6594,-4.6611,-4.6611,-4.6614,-4.6619,-4.655,-4.6657,-4.6832,-4.685,-4.6621,-4.6619,-4.6618,0,-4.6466,-4.6524,-4.6589,-4.6599,-4.6607,-4.6638,-4.6643,-4.6651,-4.6672,-4.6694,-4.6706,-4.6734,-4.675,-4.6771,-4.6751,-4.6708,-4.6824,-4.676,-4.6819,-4.682,-4.6846,-4.6845,-4.7028,-4.6857,-4.6856,-4.6856,-4.6856,0,-4.6608,-4.6669,-4.6643,-4.6683,-4.6749,-4.6722,-4.6788,-4.6787,-4.6795,-4.6833,-4.6793,-4.683,-4.6799,-4.6833,-4.6817,-4.6877,-4.6884,-4.6879,-4.6874,-4.6884,-4.6884,-4.6895,-4.6887,-4.6861,-4.686,-4.6859,-4.6858,0,-4.6753,-4.6739,-4.6807,-4.6808,-4.681,-4.6859,-4.686,-4.6897,-4.6887,-4.6936,-4.6946,-4.6931,-4.6969,-4.695,-4.6988,-4.6977,-4.7055,-4.7039,-4.7052,-4.7048,-4.7108,-4.7103,-4.7304,-4.7329,-4.7142,-4.7144,-4.7145,0,-4.6845,-4.6891,-4.6898,-4.6921,-4.6929,-4.6966,-4.6987,-4.6961,-4.6983,-4.7,-4.7035,-4.7068,-4.7094,-4.7156,-4.7148,-4.7177,-4.7161,-4.723,-4.7165,-4.7173,-4.7163,-4.7161,-4.7165,-4.7243,-4.7245,-4.7247,-4.7249,0,-4.7009,-4.7,-4.7031,-4.706,-4.7086,-4.7107,-4.7125,-4.7145,-4.712,-4.7147,-4.7185,-4.7205,-4.7244,-4.7278,-4.7303,-4.7306,-4.7274,-4.7269,-4.7284,-4.7294,-4.73,-4.7298,-4.7088,-4.7265,-4.7263,-4.7262,-4.7261,-4.726,-4.7131,-4.717,-4.7181,-4.7217,-4.7227,-4.7245,-4.7279,-4.7274,-4.7306,-4.7337,-4.7319,-4.7363,-4.7373,-4.7403,-4.741,-4.7444,-4.7417,-4.7439,-4.7444,-4.745,-4.7459,-4.7294,-4.7448,-4.7448,-4.7447,-4.7447,-4.7447,0,-4.7294,-4.7298,-4.7332,-4.7358,-4.7386,-4.7353,-4.7371,-4.7396,-4.7436,-4.7448,-4.7475,-4.7518,-4.7551,-4.7545,-4.7575,-4.7603,-4.7588,-4.7611,-4.7609,-4.7611,-4.7481,-4.7466,-4.7623,-4.7623,-4.7623,-4.7623,-4.7622,-4.7622,-4.7382,-4.7445,-4.7437,-4.7504,-4.7508,-4.7552,-4.7565,-4.758,-4.759,-4.7641,-4.7668,-4.7664,-4.7669,-4.7698,-4.7726,-4.7724,-4.7737,-4.7766,-4.7758,-4.7637,-4.762,-4.7603,-4.7588,-4.7768,-4.7769,-4.7884,-4.7885,-4.7886]}]]